SCP
-0 -0 0 0 0 0 -0 0 0 0 0 0 0 0 -0 -0 0 -0 -0 0 -0 -0 -0 -0 -0 -0 -0 0 0 0 0 0 0 -0 -0 -0 -0 -0 0 0 0 0 0
-0 -0 0 0 0 0 0 0 0 0 -0 0 -0 -0 -0 -0 -0 -0 -0 -0 0 0 -0 -0 -0 -0 -0 -0 0 0 0 0 0 0 -0 0 0 0 -0 0 0 0 0
-0 -0 0 0 0 0 0 -0 0 0 0 0 0 0 -0 0 0 0 -0 0 0 -0 -0 -0 -0 -0 -0 -0 -0 -0 0 0 0 0 0 0 0 0 0 0 0 0 0
-0 -0 0 0 0 0 0 -0 0 0 0 0 -0 0 0 0 0 0 0 -0 0 -0 0 -0 -0 -0 -0 -0 -0 -0 -0 -0 -0 0 0 0 0 0 0 0 0 0 0
-0 0 0 0 0 0 0 0 0 0 0 -0 -0 -0 0 0 -0 0 -0 -0 -0 0 0 0 0 -0 -0 -0 -0 -0 -0 -0 -0 -0 0 0 0 0 0 0 0 0 0
-0 -0 0 0 0 0 0 0 0 0 0 0 0 -0 -0 -0 -0 -0 -0 -0 -0 0 0 0 -0 0 -0 -0 -0 -0 -0 -0 -0 -0 -0 -0 0 0 0 0 0 0 0
-0 -0 0 0 0 0 0 0 0 0 0 0 0 0 -0 -0 -0 0 0 -0 -0 -0 -0 -0 0 0 -0 -0 -0 -0 -0 -0 -0 -0 -0 -0 0 0 0 0 0 0 0
-0 -0 0 0 0 0 0 0 0 0 0 0 0 0 0 -0 -0 -0 0 0 0 0 -0 0 0 0 -0 -0 -0 -0 -0 -0 0 -0 -0 -0 0 0 -0 0 0 -0 0
-0 0 -0 0 0 0 0 0 0 -0 0 0 -0 -0 -0 0 0 0 0 0 0 0 0 0 0 -0 -0 -0 -0 -0 -0 -0 -0 0 -0 -0 -0 -0 -0 0 0 0 0
0 0 -0 0 0 0 0 0 0 -0 -0 0 0 0 0 0 0 0 0 0 0 0 0 0 0 0 0 0 0 0 0 -0 -0 0 0 0 0 -0 -0 -0 0 -0 -0
0 0 0 0 0 0 0 0 0 0 0 0 0 0 0 0 0 0 0 0 0 0 0 0 0 0 0 0 0 0 0 0 0 0 0 0 0 0 0 -0 0 0 0
0 0 0 0 -0 0 0 0 0 0 0 0 0 0 0 0 0 0 0 0 0 0 0 0 0 0 0 0 0 0 0 0 0 0 0 0 0 0 0 0 -0 -0 0
0 -0 -0 -0 -0 -0 0 0 0 0 0 0 0 0 0 0 0 0 0 0 0 0 0 0 0 0 0 0 0 0 0 0 0 0 0 0 0 0 0 0 0 0 0
-0 -0 -0 -0 0 0 0 0 0 0 0 0 0 0 0 0 0 0 0 0 0 0 0 0 0 0 0 0 0 0 0 0 0 0 0 0 0 0 0 0 0 0 0
-0 -0 -0 -0 -0 0 0 0 0 0 0 0 0 0 0 0 0 0 0 0 0 0 0 0 0 0 0 0 0 0 0 0 0 0 0 0 0 0 0 0 0 0 0
-0 -0 -0 -0 0 0 0 0 -0 0 0 0 0 0 0 0 0 0 0 0 0 0 0 0 0 0 0 0 0 0 0 0 0 0 0 0 0 0 0 0 0 0 0
-0 -0 -0 0 0 -0 -0 -0 -0 -0 0 0 0 0 0 0 0 0 0 0 0 0 0 0 0 0 0 0 0 0 0 0 0 0 0 0 0 0 0 0 0 0 0
-0 0 0 -0 0 -0 -0 -0 -0 0 0 0 0 0 0 0 0 0 0 0 0 0 0 0 0 0 0 0 0 0 0 0 0 0 0 0 0 0 0 0 0 0 0
-0 0 0 0 0 0 0 0 0 0 0 0 0 0 0 0 0 0 0 0 0 0 0 0 0 0 0 0 0 0 0 0 0 0 0 0 0 0 0 0 0 0 0
-0 0 0 1 1 1 0 0 0 0 0 0 0 0 0 0 0 0 0 0 0 0 0 0 0 0 0 0 0 0 0 0 0 0 0 0 0 0 0 0 0 0 0
0 0 1 1 1 1 1 0 0 0 0 0 0 0 0 0 0 0 0 0 0 0 0 0 0 0 0 0 0 0 0 0 0 0 0 0 0 0 0 0 0 0 0
0 1 1 2 2 2 0 0 0 0 0 0 0 0 0 0 0 0 0 0 0 0 0 0 0 0 0 0 0 0 0 0 0 0 0 0 0 0 0 0 0 0 0
1 1 2 2 2 1 0 0 0 0 0 0 0 0 0 0 0 0 0 0 0 0 0 0 0 0 0 0 0 0 0 0 0 0 0 0 0 0 0 0 0 0 0
1 2 2 1 1 0 0 -0 0 0 0 -0 0 0 0 0 0 0 0 0 0 0 0 0 0 0 0 0 0 0 0 0 0 0 0 0 0 0 0 0 0 0 0
1 2 1 0 0 0 0 0 0 0 0 0 0 0 0 0 0 0 0 0 0 0 0 0 0 0 0 0 0 0 0 0 0 0 0 -0 0 0 0 0 0 0 0
3 1 0 0 0 0 0 0 0 0 0 0 0 0 0 0 0 0 0 0 0 0 0 0 0 0 0 0 0 0 0 0 0 0 0 0 0 0 0 0 0 0 0
Wind_Speed_500mb
4 7 10 14 17 18 17 20 21 20 19 18 13 14 17 14 13 13 15 17 10 20 30 23 17 21 32 25 19 18 18 20 24 25 25 19 23 26 25 22 29 32 29
7 12 16 17 19 24 27 26 23 25 22 16 15 15 17 14 13 12 15 14 16 18 21 13 8 16 26 26 28 24 24 22 26 28 28 25 27 29 27 25 30 32 31
8 15 18 19 23 28 27 28 27 28 21 19 11 11 11 12 14 12 8 9 10 19 17 14 12 13 19 28 31 31 24 26 28 31 30 27 32 32 31 31 32 32 32
13 14 17 20 24 27 29 20 19 21 18 22 18 14 14 13 14 14 9 11 12 13 17 21 16 13 18 21 29 37 36 32 34 35 39 37 34 34 35 35 36 36 35
17 14 17 20 24 25 20 4 10 12 9 14 13 9 6 5 5 3 7 2 1 5 12 13 18 18 19 26 27 32 34 33 31 41 42 43 43 40 39 40 39 40 39
20 19 17 18 22 22 11 9 15 17 16 11 7 1 1 2 4 6 5 6 8 8 7 1 4 7 10 15 23 31 36 39 35 38 48 51 47 48 46 44 44 43 43
13 10 13 16 15 13 12 17 17 15 12 10 7 8 8 7 9 8 8 9 5 14 9 2 4 2 1 0 5 12 23 27 35 36 44 61 59 51 51 51 49 49 48
17 12 10 12 7 5 10 14 15 13 10 9 8 12 10 8 9 12 10 9 13 15 12 4 2 4 4 3 2 5 10 14 19 27 30 32 59 64 59 56 55 53 50
9 10 11 12 7 2 6 9 9 9 8 8 11 7 4 5 12 8 12 16 15 12 13 10 7 3 0 4 6 6 8 9 13 16 17 19 35 54 57 64 64 61 58
9 8 9 12 8 3 2 3 4 5 5 5 7 8 6 8 5 7 11 15 13 12 10 7 6 2 3 3 4 6 7 9 13 15 13 15 23 23 33 64 64 64 64
8 6 9 13 9 7 4 3 2 2 3 5 5 4 7 8 7 5 8 13 14 12 12 11 8 4 4 2 4 4 9 13 15 17 16 16 16 16 23 45 67 64 65
8 7 7 10 7 7 9 7 6 5 5 6 9 8 6 4 5 7 7 12 13 16 15 11 9 8 4 3 5 11 17 21 24 21 20 18 18 17 21 28 53 71 72
10 12 12 10 7 9 8 7 7 7 7 8 8 8 8 7 6 7 9 11 16 21 15 17 16 13 12 10 10 13 21 26 27 24 22 20 18 19 22 15 20 28 79
14 13 12 13 11 7 6 6 7 7 6 6 9 9 9 8 7 8 9 11 10 13 20 18 22 21 18 14 10 15 21 22 20 18 17 19 20 18 19 20 20 18 35
23 21 18 15 15 13 9 8 10 8 7 7 9 11 12 12 10 10 10 15 16 16 17 24 19 25 19 15 8 18 24 21 19 17 17 16 17 20 19 18 18 14 8
33 29 24 23 23 18 16 15 16 13 12 12 11 10 11 12 13 10 8 10 17 16 15 15 25 23 21 15 11 20 24 22 16 13 13 14 16 19 22 21 17 15 8
40 38 35 31 30 24 23 18 21 20 18 15 13 13 17 17 13 11 9 10 12 16 13 16 20 18 17 12 10 17 20 18 13 11 13 13 14 18 18 17 15 12 9
43 39 35 37 38 32 31 24 24 21 20 19 17 18 19 13 10 8 7 6 7 10 13 16 18 23 19 12 11 15 17 14 11 11 10 10 13 16 16 15 14 11 8
50 50 50 45 42 40 37 28 17 20 20 20 20 21 16 10 10 8 7 4 3 3 5 10 17 20 15 10 11 14 14 15 8 9 9 13 16 18 16 14 14 10 7
54 56 54 54 52 48 42 32 17 12 15 20 21 21 18 14 12 8 7 4 5 4 5 8 11 13 13 10 9 7 7 10 9 6 8 12 15 14 15 15 13 12 9
59 59 59 57 56 55 50 34 19 15 15 21 22 23 21 19 15 10 7 7 2 2 6 10 12 13 11 6 3 7 4 6 8 9 11 11 12 11 9 10 9 11 11
68 66 66 62 58 55 46 18 4 19 22 22 27 26 26 22 17 12 9 5 5 4 6 8 11 12 11 6 5 4 5 8 9 16 22 21 24 17 13 10 15 16 19
68 70 68 61 57 46 38 10 8 18 28 32 31 32 28 22 18 14 11 9 9 5 4 9 9 10 7 5 7 9 12 12 13 16 31 24 21 18 16 17 20 20 21
61 63 62 54 55 46 29 40 8 33 52 34 37 37 30 21 18 16 12 12 10 5 6 9 6 4 7 8 9 10 14 18 22 22 34 26 21 17 17 16 22 25 29
51 53 53 54 60 57 40 39 42 51 43 37 44 40 32 25 22 20 16 14 12 10 8 6 4 6 9 10 7 12 15 18 23 23 26 32 17 16 16 16 21 28 26
40 42 36 37 48 39 35 30 52 37 42 45 52 43 35 25 24 22 17 15 13 13 11 7 5 5 6 5 9 16 23 20 25 26 23 26 19 18 14 14 9 21 19
Wind_Direction_500mb
254 291 299 298 292 289 282 286 277 271 269 268 257 253 263 283 275 270 289 299 312 266 280 275 273 200 212 216 216 211 210 208 203 199 202 197 187 180 186 188 179 182 180
288 302 308 312 300 292 284 276 283 260 252 265 257 256 268 264 268 270 293 310 278 296 280 311 274 231 212 220 228 228 223 214 213 215 210 206 193 192 190 189 177 174 178
310 315 327 316 305 307 300 274 267 254 265 245 252 251 275 245 259 286 286 258 264 276 282 281 291 252 219 213 220 224 223 220 218 215 213 207 203 204 203 198 192 187 190
301 317 321 320 326 318 313 284 251 239 248 225 238 265 282 257 265 282 276 269 278 271 268 269 272 273 247 225 218 226 229 225 218 219 219 216 214 210 210 208 203 203 199
283 304 325 322 331 329 333 264 210 202 224 190 211 260 307 290 287 314 261 249 241 226 272 277 262 266 258 234 232 227 230 238 230 223 226 224 223 220 217 217 215 210 209
280 288 314 331 334 345 18 112 141 143 146 166 198 184 78 130 140 146 166 126 167 207 205 211 323 275 259 247 245 240 242 246 244 245 235 227 226 225 223 223 222 220 215
298 294 302 330 344 6 61 95 118 141 157 159 136 131 116 108 124 133 137 135 151 157 154 163 14 352 272 240 270 252 249 256 251 270 276 232 222 228 228 227 224 223 221
271 284 302 320 334 58 103 110 118 132 136 141 150 142 143 119 121 112 115 144 152 165 157 171 122 26 33 61 339 257 252 258 259 266 278 248 222 224 228 227 227 225 224
286 266 292 300 279 192 126 122 125 140 155 165 162 156 139 140 144 131 137 144 147 148 147 155 155 162 338 318 338 4 350 326 306 300 295 268 249 265 225 228 225 224 223
291 266 293 298 265 231 201 169 174 180 187 191 169 171 160 148 157 162 151 154 152 163 180 179 145 144 322 51 32 29 348 324 305 303 307 292 272 285 261 224 224 226 226
247 256 300 315 269 252 270 265 243 202 203 194 185 149 131 122 160 156 177 167 174 170 171 181 186 187 144 72 54 7 345 343 336 321 310 305 300 287 251 235 227 231 232
239 250 290 316 255 232 227 238 236 218 190 171 173 171 167 160 166 166 157 175 192 190 192 222 231 212 205 250 309 329 335 338 338 331 320 304 298 299 270 271 236 233 232
276 269 273 293 295 245 242 257 271 263 236 209 203 197 189 194 204 203 179 192 201 198 188 202 215 230 233 247 276 322 338 337 333 324 316 316 313 309 318 303 272 269 228
250 260 264 273 286 289 259 271 289 256 223 232 221 220 216 231 245 247 223 196 196 199 207 228 229 223 233 255 291 323 328 330 329 319 313 312 320 327 332 332 314 318 204
244 257 262 264 271 274 277 288 268 267 258 270 255 240 239 250 253 262 250 222 212 218 218 218 220 231 239 251 286 324 317 328 328 320 318 325 326 328 330 340 351 349 334
244 253 260 258 259 270 279 296 286 252 255 267 257 245 252 262 268 272 256 238 217 210 219 208 224 236 237 249 285 315 317 330 324 318 321 321 328 330 330 327 333 341 354
244 250 257 258 258 267 265 284 277 246 245 252 255 264 272 268 260 265 267 255 236 228 217 231 225 230 231 252 286 304 322 328 322 312 313 322 330 338 348 341 336 334 343
247 250 254 258 260 264 260 263 274 250 252 264 269 275 281 272 270 262 237 215 216 214 217 224 212 207 209 238 282 313 326 334 341 325 315 318 331 339 349 354 347 341 330
251 253 253 255 262 263 264 244 250 238 246 261 263 280 273 251 236 222 228 213 176 144 149 182 192 199 209 239 287 317 337 341 338 322 329 326 326 323 325 338 350 333 323
255 256 257 255 254 257 258 246 243 241 253 266 264 271 263 242 227 234 241 216 188 155 162 172 193 210 218 239 289 324 345 10 20 1 337 340 352 355 355 333 328 313 302
258 259 258 256 254 249 253 239 264 287 304 273 257 260 249 245 250 234 217 213 197 221 201 187 191 190 200 228 242 327 351 340 343 340 332 321 322 335 328 343 320 300 293
259 260 260 256 253 251 247 201 21 338 318 287 267 256 251 246 235 225 222 244 281 297 237 182 182 187 220 204 323 333 324 340 335 317 325 312 304 299 295 303 304 295 285
261 260 261 254 246 248 183 194 218 273 281 275 244 239 241 234 231 227 231 260 299 298 186 156 164 168 200 260 311 327 317 332 330 330 344 329 311 309 283 270 281 280 287
265 264 259 252 245 194 162 31 228 221 252 251 226 225 227 227 227 229 236 254 276 242 157 144 164 218 242 264 303 306 325 329 336 328 340 336 317 313 295 270 277 286 295
271 267 258 247 233 189 182 286 212 219 230 235 213 212 215 220 220 223 233 246 249 212 187 187 231 269 275 272 290 320 315 314 317 319 326 343 319 316 298 280 286 289 290
267 271 270 259 240 235 276 278 243 219 237 222 202 200 207 216 217 218 227 238 221 199 177 163 131 83 49 351 315 311 308 307 309 319 307 334 313 315 313 286 296 302 299
Wind_Speed_850mb
4 7 10 14 17 18 17 20 21 20 19 18 13 14 17 14 13 13 15 17 10 20 30 23 17 21 32 25 19 18 18 20 24 25 25 19 23 26 25 22 29 32 29
7 12 16 17 19 24 27 26 23 25 22 16 15 15 17 14 13 12 15 14 16 18 21 13 8 16 26 26 28 24 24 22 26 28 28 25 27 29 27 25 30 32 31
8 15 18 19 23 28 27 28 27 28 21 19 11 11 11 12 14 12 8 9 10 19 17 14 12 13 19 28 31 31 24 26 28 31 30 27 32 32 31 31 32 32 32
13 14 17 20 24 27 29 20 19 21 18 22 18 14 14 13 14 14 9 11 12 13 17 21 16 13 18 21 29 37 36 32 34 35 39 37 34 34 35 35 36 36 35
17 14 17 20 24 25 20 4 10 12 9 14 13 9 6 5 5 3 7 2 1 5 12 13 18 18 19 26 27 32 34 33 31 41 42 43 43 40 39 40 39 40 39
20 19 17 18 22 22 11 9 15 17 16 11 7 1 1 2 4 6 5 6 8 8 7 1 4 7 10 15 23 31 36 39 35 38 48 51 47 48 46 44 44 43 43
13 10 13 16 15 13 12 17 17 15 12 10 7 8 8 7 9 8 8 9 5 14 9 2 4 2 1 0 5 12 23 27 35 36 44 61 59 51 51 51 49 49 48
17 12 10 12 7 5 10 14 15 13 10 9 8 12 10 8 9 12 10 9 13 15 12 4 2 4 4 3 2 5 10 14 19 27 30 32 59 64 59 56 55 53 50
9 10 11 12 7 2 6 9 9 9 8 8 11 7 4 5 12 8 12 16 15 12 13 10 7 3 0 4 6 6 8 9 13 16 17 19 35 54 57 64 64 61 58
9 8 9 12 8 3 2 3 4 5 5 5 7 8 6 8 5 7 11 15 13 12 10 7 6 2 3 3 4 6 7 9 13 15 13 15 23 23 33 64 64 64 64
8 6 9 13 9 7 4 3 2 2 3 5 5 4 7 8 7 5 8 13 14 12 12 11 8 4 4 2 4 4 9 13 15 17 16 16 16 16 23 45 67 64 65
8 7 7 10 7 7 9 7 6 5 5 6 9 8 6 4 5 7 7 12 13 16 15 11 9 8 4 3 5 11 17 21 24 21 20 18 18 17 21 28 53 71 72
10 12 12 10 7 9 8 7 7 7 7 8 8 8 8 7 6 7 9 11 16 21 15 17 16 13 12 10 10 13 21 26 27 24 22 20 18 19 22 15 20 28 79
14 13 12 13 11 7 6 6 7 7 6 6 9 9 9 8 7 8 9 11 10 13 20 18 22 21 18 14 10 15 21 22 20 18 17 19 20 18 19 20 20 18 35
23 21 18 15 15 13 9 8 10 8 7 7 9 11 12 12 10 10 10 15 16 16 17 24 19 25 19 15 8 18 24 21 19 17 17 16 17 20 19 18 18 14 8
33 29 24 23 23 18 16 15 16 13 12 12 11 10 11 12 13 10 8 10 17 16 15 15 25 23 21 15 11 20 24 22 16 13 13 14 16 19 22 21 17 15 8
40 38 35 31 30 24 23 18 21 20 18 15 13 13 17 17 13 11 9 10 12 16 13 16 20 18 17 12 10 17 20 18 13 11 13 13 14 18 18 17 15 12 9
43 39 35 37 38 32 31 24 24 21 20 19 17 18 19 13 10 8 7 6 7 10 13 16 18 23 19 12 11 15 17 14 11 11 10 10 13 16 16 15 14 11 8
50 50 50 45 42 40 37 28 17 20 20 20 20 21 16 10 10 8 7 4 3 3 5 10 17 20 15 10 11 14 14 15 8 9 9 13 16 18 16 14 14 10 7
54 56 54 54 52 48 42 32 17 12 15 20 21 21 18 14 12 8 7 4 5 4 5 8 11 13 13 10 9 7 7 10 9 6 8 12 15 14 15 15 13 12 9
59 59 59 57 56 55 50 34 19 15 15 21 22 23 21 19 15 10 7 7 2 2 6 10 12 13 11 6 3 7 4 6 8 9 11 11 12 11 9 10 9 11 11
68 66 66 62 58 55 46 18 4 19 22 22 27 26 26 22 17 12 9 5 5 4 6 8 11 12 11 6 5 4 5 8 9 16 22 21 24 17 13 10 15 16 19
68 70 68 61 57 46 38 10 8 18 28 32 31 32 28 22 18 14 11 9 9 5 4 9 9 10 7 5 7 9 12 12 13 16 31 24 21 18 16 17 20 20 21
61 63 62 54 55 46 29 40 8 33 52 34 37 37 30 21 18 16 12 12 10 5 6 9 6 4 7 8 9 10 14 18 22 22 34 26 21 17 17 16 22 25 29
51 53 53 54 60 57 40 39 42 51 43 37 44 40 32 25 22 20 16 14 12 10 8 6 4 6 9 10 7 12 15 18 23 23 26 32 17 16 16 16 21 28 26
40 42 36 37 48 39 35 30 52 37 42 45 52 43 35 25 24 22 17 15 13 13 11 7 5 5 6 5 9 16 23 20 25 26 23 26 19 18 14 14 9 21 19
Wind_Direction_850mb
254 291 299 298 292 289 282 286 277 271 269 268 257 253 263 283 275 270 289 299 312 266 280 275 273 200 212 216 216 211 210 208 203 199 202 197 187 180 186 188 179 182 180
288 302 308 312 300 292 284 276 283 260 252 265 257 256 268 264 268 270 293 310 278 296 280 311 274 231 212 220 228 228 223 214 213 215 210 206 193 192 190 189 177 174 178
310 315 327 316 305 307 300 274 267 254 265 245 252 251 275 245 259 286 286 258 264 276 282 281 291 252 219 213 220 224 223 220 218 215 213 207 203 204 203 198 192 187 190
301 317 321 320 326 318 313 284 251 239 248 225 238 265 282 257 265 282 276 269 278 271 268 269 272 273 247 225 218 226 229 225 218 219 219 216 214 210 210 208 203 203 199
283 304 325 322 331 329 333 264 210 202 224 190 211 260 307 290 287 314 261 249 241 226 272 277 262 266 258 234 232 227 230 238 230 223 226 224 223 220 217 217 215 210 209
280 288 314 331 334 345 18 112 141 143 146 166 198 184 78 130 140 146 166 126 167 207 205 211 323 275 259 247 245 240 242 246 244 245 235 227 226 225 223 223 222 220 215
298 294 302 330 344 6 61 95 118 141 157 159 136 131 116 108 124 133 137 135 151 157 154 163 14 352 272 240 270 252 249 256 251 270 276 232 222 228 228 227 224 223 221
271 284 302 320 334 58 103 110 118 132 136 141 150 142 143 119 121 112 115 144 152 165 157 171 122 26 33 61 339 257 252 258 259 266 278 248 222 224 228 227 227 225 224
286 266 292 300 279 192 126 122 125 140 155 165 162 156 139 140 144 131 137 144 147 148 147 155 155 162 338 318 338 4 350 326 306 300 295 268 249 265 225 228 225 224 223
291 266 293 298 265 231 201 169 174 180 187 191 169 171 160 148 157 162 151 154 152 163 180 179 145 144 322 51 32 29 348 324 305 303 307 292 272 285 261 224 224 226 226
247 256 300 315 269 252 270 265 243 202 203 194 185 149 131 122 160 156 177 167 174 170 171 181 186 187 144 72 54 7 345 343 336 321 310 305 300 287 251 235 227 231 232
239 250 290 316 255 232 227 238 236 218 190 171 173 171 167 160 166 166 157 175 192 190 192 222 231 212 205 250 309 329 335 338 338 331 320 304 298 299 270 271 236 233 232
276 269 273 293 295 245 242 257 271 263 236 209 203 197 189 194 204 203 179 192 201 198 188 202 215 230 233 247 276 322 338 337 333 324 316 316 313 309 318 303 272 269 228
250 260 264 273 286 289 259 271 289 256 223 232 221 220 216 231 245 247 223 196 196 199 207 228 229 223 233 255 291 323 328 330 329 319 313 312 320 327 332 332 314 318 204
244 257 262 264 271 274 277 288 268 267 258 270 255 240 239 250 253 262 250 222 212 218 218 218 220 231 239 251 286 324 317 328 328 320 318 325 326 328 330 340 351 349 334
244 253 260 258 259 270 279 296 286 252 255 267 257 245 252 262 268 272 256 238 217 210 219 208 224 236 237 249 285 315 317 330 324 318 321 321 328 330 330 327 333 341 354
244 250 257 258 258 267 265 284 277 246 245 252 255 264 272 268 260 265 267 255 236 228 217 231 225 230 231 252 286 304 322 328 322 312 313 322 330 338 348 341 336 334 343
247 250 254 258 260 264 260 263 274 250 252 264 269 275 281 272 270 262 237 215 216 214 217 224 212 207 209 238 282 313 326 334 341 325 315 318 331 339 349 354 347 341 330
251 253 253 255 262 263 264 244 250 238 246 261 263 280 273 251 236 222 228 213 176 144 149 182 192 199 209 239 287 317 337 341 338 322 329 326 326 323 325 338 350 333 323
255 256 257 255 254 257 258 246 243 241 253 266 264 271 263 242 227 234 241 216 188 155 162 172 193 210 218 239 289 324 345 10 20 1 337 340 352 355 355 333 328 313 302
258 259 258 256 254 249 253 239 264 287 304 273 257 260 249 245 250 234 217 213 197 221 201 187 191 190 200 228 242 327 351 340 343 340 332 321 322 335 328 343 320 300 293
259 260 260 256 253 251 247 201 21 338 318 287 267 256 251 246 235 225 222 244 281 297 237 182 182 187 220 204 323 333 324 340 335 317 325 312 304 299 295 303 304 295 285
261 260 261 254 246 248 183 194 218 273 281 275 244 239 241 234 231 227 231 260 299 298 186 156 164 168 200 260 311 327 317 332 330 330 344 329 311 309 283 270 281 280 287
265 264 259 252 245 194 162 31 228 221 252 251 226 225 227 227 227 229 236 254 276 242 157 144 164 218 242 264 303 306 325 329 336 328 340 336 317 313 295 270 277 286 295
271 267 258 247 233 189 182 286 212 219 230 235 213 212 215 220 220 223 233 246 249 212 187 187 231 269 275 272 290 320 315 314 317 319 326 343 319 316 298 280 286 289 290
267 271 270 259 240 235 276 278 243 219 237 222 202 200 207 216 217 218 227 238 221 199 177 163 131 83 49 351 315 311 308 307 309 319 307 334 313 315 313 286 296 302 299